TimeCDT,TemperatureF,Dew PointF,Humidity,Sea Level PressureIn,VisibilityMPH,Wind Direction,Wind SpeedMPH,Gust SpeedMPH,PrecipitationIn,Events,Conditions,WindDirDegrees,DateUTC
12:53 AM,6.1,-0.0,76,30.19,10.0,ENE,9.2,-,N/A,,Clear,60,2013-03-21 05:53:00
1:53 AM,1.9,-2.0,83,30.19,10.0,ENE,4.6,-,N/A,,Clear,70,2013-03-21 06:53:00
2:53 AM,1.9,-5.1,72,30.18,10.0,Calm,Calm,-,N/A,,Clear,0,2013-03-21 07:53:00
3:53 AM,-0.0,-7.1,72,30.18,10.0,ENE,5.8,-,N/A,,Clear,60,2013-03-21 08:53:00
4:53 AM,-0.0,-7.1,72,30.17,10.0,NE,3.5,-,N/A,,Clear,50,2013-03-21 09:53:00
5:53 AM,-2.0,-8.0,76,30.16,10.0,NE,5.8,-,N/A,,Clear,50,2013-03-21 10:53:00
6:53 AM,-2.0,-8.0,76,30.17,10.0,ENE,4.6,-,N/A,,Clear,60,2013-03-21 11:53:00
7:53 AM,-2.0,-8.0,76,30.17,10.0,Calm,Calm,-,N/A,,Clear,0,2013-03-21 12:53:00
8:53 AM,1.0,-4.0,79,30.16,10.0,ENE,4.6,-,N/A,,Clear,60,2013-03-21 13:53:00
9:53 AM,3.9,-2.0,76,30.14,10.0,ENE,8.1,-,N/A,,Clear,70,2013-03-21 14:53:00
10:53 AM,7.0,-0.0,73,30.13,10.0,East,9.2,-,N/A,,Clear,80,2013-03-21 15:53:00
11:53 AM,9.0,1.0,70,30.13,10.0,ENE,3.5,-,N/A,,Clear,70,2013-03-21 16:53:00
12:53 PM,12.9,3.9,67,30.12,10.0,NE,9.2,-,N/A,,Clear,40,2013-03-21 17:53:00
1:53 PM,16.0,7.0,68,30.11,10.0,ENE,10.4,-,N/A,,Clear,60,2013-03-21 18:53:00
2:53 PM,19.0,10.0,68,30.09,10.0,ENE,10.4,-,N/A,,Clear,70,2013-03-21 19:53:00
3:53 PM,21.9,12.0,66,30.07,10.0,East,11.5,-,N/A,,Clear,90,2013-03-21 20:53:00
4:53 PM,23.0,12.9,65,30.06,10.0,East,10.4,-,N/A,,Clear,90,2013-03-21 21:53:00
5:53 PM,21.9,12.9,68,30.07,10.0,ENE,13.8,-,N/A,,Clear,70,2013-03-21 22:53:00
6:53 PM,19.9,10.9,68,30.09,10.0,East,11.5,-,N/A,,Clear,90,2013-03-21 23:53:00
7:53 PM,17.1,8.1,68,30.11,10.0,East,10.4,-,N/A,,Clear,90,2013-03-22 00:53:00
8:53 PM,14.0,6.1,71,30.12,10.0,ENE,9.2,-,N/A,,Clear,70,2013-03-22 01:53:00
9:53 PM,10.9,3.9,73,30.14,10.0,ENE,10.4,-,N/A,,Clear,70,2013-03-22 02:53:00
10:53 PM,9.0,3.0,77,30.15,10.0,NE,5.8,-,N/A,,Clear,50,2013-03-22 03:53:00
11:53 PM,7.0,1.9,80,30.15,10.0,NE,6.9,-,N/A,,Clear,50,2013-03-22 04:53:00